Location: ????????
(55.6333°N, 37.7000°E)
Time: 13:14:30
(UTC+00:00)

Cosmos 1538 Rocket - Pass Details

Date: 19 May 2025
Orbit: 749 x 788 km, 74.0° (Epoch: 19 June)

Event Time Altitude Azimuth Distance (km) Brightness Sun altitude
Exits shadow 21:10:24 19° 201° (SSW) 1,730 5.3 -14.3°
Maximum altitude 21:14:08 81° 115° (ESE) 767 3.9 -14.4°
Drops below altitude 10° 21:19:18 10° 29° (NNE) 2,282 7.4 -14.4°
Sets 21:21:40 0° 29° (NNE) 3,211 8.3 -14.4°
